sat.trackr.live / text

‹ back to catalog

STARLINK-32168

NORAD 60335 · 2024-136G

PAYLOAD ACTIVE UNKNOWN

§ Identity

Operator
Country
US
Launch date
2024-08-02
Launch site
AFETR
Launch vehicle
Mass (kg)
RCS (m²)

Purposes: comms

External: N2YO · Heavens-Above · Gunter

§ Orbital elements

Epoch: 2026-05-25T02:44:35.490624Z

Period
94.11 min
Inclination
53.1591°
Eccentricity
0.0001243
Mean motion
15.30192864 rev/d
Perigee alt
474.4 km
Apogee alt
476.1 km
Semi-major
6,853.4 km
B*
1.9896e-5
RAAN
80.8140°
Arg perigee
90.8810°
Mean anomaly
269.2333°
Rev number
10,136

§ Raw data

STARLINK-321681 60335U 24136G   26145.11429966  .00000230  00000+0  19896-4 0  99902 60335  53.1591  80.8140 0001243  90.8810 269.2333 15.30192864101368

JSON: /api/v1/satellites/60335 · /tle

For live sub-satellite position, see the globe view (requires WebGL).

§ Visibility from observer

Set your observer location to see the next 7 days of passes ≥ 10°. The values pass through the URL so the page stays shareable.

No JS? Fill the form by hand. The geolocation button needs JavaScript.